This is the latest recevied weather packets stored in our database for station/object KD4KKF. If no packets are shown the sender has not sent any weather packets the latest 10 day(s).
| Time | Temp. | Humidity | Pressure | Rain* | Wind** | Luminosity | Snow |
|---|---|---|---|---|---|---|---|
| 1777918923 | 25.56° C | 46% | 1014 hPa | 0 mm | - | 765 W/m² | - |
| 1777918621 | 25.56° C | 46% | 1013.9 hPa | 0 mm | - | 884 W/m² | - |
| 1777918318 | 25° C | 48% | 1013.8 hPa | 0 mm | - | 579 W/m² | - |
| 1777918017 | 25.56° C | 49% | 1014.1 hPa | 0 mm | - | 641 W/m² | - |
| 1777917715 | 25.56° C | 48% | 1013.8 hPa | 0 mm | - | 921 W/m² | - |
| 1777917412 | 25.56° C | 49% | 1014 hPa | 0 mm | - | 874 W/m² | - |
| 1777917109 | 24.44° C | 50% | 1014.1 hPa | 0 mm | - | 535 W/m² | - |
| 1777916807 | 23.89° C | 51% | 1014.3 hPa | 0 mm | - | 570 W/m² | - |
| 1777916503 | 23.89° C | 51% | 1014.5 hPa | 0 mm | - | 326 W/m² | - |
| 1777916200 | 23.89° C | 54% | 1014.4 hPa | 0 mm | - | 669 W/m² | - |
| 1777915898 | 25° C | 49% | 1014.4 hPa | 0 mm | - | 639 W/m² | - |
| 1777915594 | 25° C | 50% | 1014.8 hPa | 0 mm | - | 848 W/m² | - |
| 1777915291 | 24.44° C | 56% | 1014.6 hPa | 0 mm | - | 737 W/m² | - |
| 1777914987 | 23.89° C | 52% | 1014.8 hPa | 0 mm | - | 610 W/m² | - |
| 1777914685 | 23.89° C | 56% | 1014.9 hPa | 0 mm | - | 557 W/m² | - |
| 1777914381 | 24.44° C | 52% | 1015 hPa | 0 mm | - | 801 W/m² | - |
| 1777914079 | 23.89° C | 55% | 1014.9 hPa | 0 mm | - | 543 W/m² | - |
| 1777913774 | 23.89° C | 53% | 1015.1 hPa | 0 mm | - | 371 W/m² | - |
| 1777913471 | 24.44° C | 51% | 1014.8 hPa | 0 mm | - | 769 W/m² | - |
| 1777913167 | 24.44° C | 52% | 1015.1 hPa | 0 mm | - | 844 W/m² | - |
| 1777912864 | 24.44° C | 52% | 1015 hPa | 0 mm | - | 825 W/m² | - |
| 1777912560 | 23.89° C | 54% | 1015.3 hPa | 0 mm | - | 812 W/m² | - |
| 1777912256 | 23.89° C | 52% | 1015.5 hPa | 0 mm | - | 782 W/m² | - |
| 1777911953 | 23.33° C | 55% | 1015.3 hPa | 0 mm | - | 765 W/m² | - |
| 1777911649 | 23.33° C | 54% | 1015.6 hPa | 0 mm | - | 761 W/m² | - |
* Rain latest hour (hover to see other rain measurements)
** Current wind speed in m/s (hover to see current wind gust speed)